Location: ????????
(55.3939°N, 37.4780°E)
Time: 01:21:28
(UTC+00:00)

Meteor 2-8 Rocket - Pass Details

Date: 14 April 2026
Orbit: 936 x 958 km, 82.5° (Epoch: 20 May)

Event Time Altitude Azimuth Distance (km) Brightness Sun altitude
Exits shadow 19:07:24 17° 190° (S) 2,207 6.0 -18.5°
Maximum altitude 19:12:17 90° 288° (WNW) 949 4.4 -18.9°
Drops below altitude 10° 19:18:23 10° 12° (NNE) 2,664 7.4 -19.4°
Sets 19:20:52 0° 13° (NNE) 3,611 8.1 -19.6°
